{"data":{"norad_id":53834,"intl_designator":"2022-114S","name":"STARLINK-4737","alt_names":[],"object_type":"PAYLOAD","status":"ACTIVE","operator":null,"country":"US","launch_date":"2022-09-19","launch_site_code":"AFETR","launch_vehicle":null,"mission":null,"orbit_class":"UNKNOWN","rcs_meters":null,"size_class":null,"mass_kg":null,"dimensions":null,"purposes":["comms"],"wikipedia_slug":null,"has_3d_model":false,"image_url":null,"decayed_at":null,"tle_current":{"epoch":"2026-05-25T04:20:37.262112Z","epoch_age_seconds":66722,"freshness":"FRESH","line1":"1 53834U 22114S   26145.18098683 -.00001391  00000+0 -69302-4 0  9993","line2":"2 53834  53.2141 320.4080 0001162  86.6074 273.5051 15.08843631204388","mean_motion":15.08843631,"eccentricity":0.0001162,"inclination_deg":53.2141,"raan_deg":320.408,"arg_perigee_deg":86.6074,"mean_anomaly_deg":273.5051,"bstar":-6.9302e-5,"rev_number":20438,"period_min":95.437325009327,"perigee_km":538.92843406041,"apogee_km":540.53614688352,"semimajor_km":6917.869290472,"source":"CELESTRAK","updated_at":"2026-05-25T13:38:17.572511Z"}}}